Location: Crescent
(42.8242°N, 73.7329°W)
Time: 08:36:39
(UTC+00:00)

Vanguard 1 - Pass Details

Date: 16 February 2026
Orbit: 653 x 3818 km, 34.2° (Epoch: 12 March)

Event Time Altitude Azimuth Distance (km) Brightness Sun altitude
Rises 21:21:03 0° 244° (WSW) 4,970 16.0 10.5°
Reaches altitude 10° 21:23:47 10° 241° (WSW) 4,303 17.3 10.1°
Maximum altitude 21:36:15 60° 165° (SSE) 3,104 12.8 8.0°
Drops below altitude 10° 21:57:10 10° 93° (E) 6,823 13.8 4.5°
Sets 22:02:54 0° 91° (E) 7,951 14.1 3.5°
